Weather in Bikmurzino

Russia / Penza Oblast     52°46′53″N   46°48′58″E
temp.,
°C
wind,
m/s
gust,
m/s
humid.,
%
clouds,
%
prec.,
mm/h
press.,
hPa
HPBL,
m
22 may, sun
sun2200:00+4sw2275100 0.0 100711
03:00+4sw2272100 0.0 100626
06:00+6s3570100 0.0 1003162
09:00+11s3354100 0.0 1001908
12:00+12s3247100 0.1 9991697
15:00+12s325097 0.1 9981457
18:00+12ne3462100 0.1 997201
21:00+8ne4783100 0.8 998400
23 may, mon
mon2300:00+7ne4889100 0.7 998507
03:00+6nne3592100 0.7 998358
06:00+5nne358399 0.0 999283
09:00+9nnw446273 0.0 9991308
12:00+9wnw4454100 0.1 10011626
15:00+9wnw465394 0.1 10021440
18:00+7nw565995 0.0 10031188
21:00+3nw37755 0.0 1005171
24 may, tue
tue2400:00+2w35840 0.0 1006106
03:00+1wsw36855 0.0 1006129
06:00+5wsw511725 0.0 1006384
09:00+10wsw69590 0.0 10051477
12:00+13w784149 0.0 10052375
15:00+13w694282 0.0 10052194
18:00+10wnw5767100 0.4 1006561
21:00+6sw1782100 1.4 1009444
25 may, wed
wed2500:00+4w37945 0.0 1009195
03:00+2nw35976 0.0 1010128
06:00+4nw46887 0.0 1011332
09:00+8nw556169 0.1 10121443
12:00+10nw454798 0.1 10121918
15:00+10nw564999 0.1 10131823
18:00+9nw566074 0.1 10141321
21:00+4nw35825 0.1 1015103
26 may, thu
thu2600:00+3wnw33875 0.0 101655
03:00+2wnw34905 0.0 101663
06:00+4w357636 0.0 1016245
09:00+9wsw45557 0.0 10151364
12:00+12wsw6749100 0.0 10131788
15:00+12wsw6963100 0.0 10121333
18:00+13sw51077100 0.4 1009861
21:00+12sw61488100 1.1 1007646